Location: Unspecified
(0.0000°N, 0.0000°E)
Time: 00:06:51
(UTC+02:00)

GPS 2-12 Rocket1 - Visible Passes

Search period start: 20 April 2014 00:00
Search period end: 30 April 2014 00:00
Orbit: 593 x 661 km, 20.0° (Epoch: 18 April)

Date Brightness Start Highest point End Pass type
(mag) Time Alt. Az. Time Alt. Az. Time Alt. Az.
20 Apr 3.1 21:24:32 10° WSW 21:29:05 58° SSE 21:29:16 57° SSE visible
21 Apr 5.9 06:10:02 10° N 06:10:40 10° NNE 06:11:18 10° NNE visible
21 Apr 3.3 21:43:02 10° WSW 21:47:07 67° W 21:47:07 67° W visible
22 Apr 5.6 06:26:42 10° NNW 06:29:31 15° NNE 06:32:18 10° NE visible
22 Apr 3.3 20:18:06 10° SW 20:22:32 53° SSE 20:27:02 10° E visible
22 Apr 4.5 22:01:51 10° W 22:05:00 35° WNW 22:05:00 35° WNW visible
23 Apr 5.1 06:44:22 10° NW 06:48:14 24° NNE 06:52:04 10° ENE visible
23 Apr 3.1 20:36:33 10° WSW 20:41:04 83° NNW 20:45:41 10° ENE visible
23 Apr 5.5 22:21:02 10° WNW 22:22:53 19° NW 22:22:53 19° NW visible
24 Apr 6.0 05:24:26 13° NE 05:24:26 13° NE 05:25:33 10° NE visible
24 Apr 4.4 07:02:21 10° NW 07:06:52 39° NNE 07:11:20 10° E visible
24 Apr 3.9 20:55:18 10° W 20:59:38 45° NNW 21:03:34 13° NE visible
24 Apr 6.2 22:40:43 10° NW 22:40:46 10° NW 22:40:46 10° NW visible
25 Apr 5.2 05:42:13 22° NNE 05:42:13 22° NNE 05:45:22 10° ENE visible
25 Apr 3.5 07:20:36 10° WNW 07:25:26 69° NNE 07:30:11 10° ESE visible
25 Apr 4.8 21:14:26 10° WNW 21:18:13 26° NNW 21:21:25 13° NNE visible
26 Apr 4.3 06:00:02 36° NNE 06:00:12 37° NNE 06:04:39 10° E visible
26 Apr 5.4 21:34:03 10° NW 21:36:54 16° NNW 21:39:13 12° NNE visible
27 Apr 3.4 06:17:53 53° NNW 06:18:44 64° NNE 06:23:32 10° ESE visible
27 Apr 5.8 21:54:45 10° NNW 21:55:40 11° NNW 21:56:36 10° N visible
28 Apr 3.1 06:35:44 43° W 06:37:15 72° SSW 06:42:05 10° ESE visible
28 Apr 5.5 20:27:22 10° WNW 20:30:16 17° NNW 20:33:11 10° NNE visible
29 Apr 6.1 05:16:23 12° E 05:16:23 12° E 05:16:49 10° E visible
29 Apr 3.7 06:53:35 26° WSW 06:55:46 41° SSW 07:00:20 10° SE visible
29 Apr 5.8 20:47:54 10° NNW 20:49:00 11° NNW 20:50:07 10° N visible
